Content
SEND FEEDBACK

Daily
Averages
Monthly
Summary
United States of America

BUNKER HILL, INDIANA


Home > North America > United States > Indiana
Elevation: 813 feet     Latitude: 40 39N     Longitude: 086 08W

WEATHER
 
SELECT A DAY
Number of Records: 167,426;   Date Range: 1/3/95 - 7/7/14
 
SHARE

PRINT THIS DATA

[ ← Previous Day ]
WEATHER ALMANAC - FEBRUARY 13, 2013
[ Next Day → ]
[ °C ]   °F
Weather ElementAverageHighLow
Temperature31.2 °F44.1 °F (4:55 pm)23 °F (7:16 am)
Dewpoint26.3 °F30.9 °F (5:55 pm)21.4 °F (1:55 am)
Humidity83.4 %100 % (7:16 am)56 % (1:55 pm)
Barometer29.85 in29.96 in (1:24 am)29.77 in (3:55 pm)
Wind Speed4.8 mph10.4 mph (9:55 pm)
Weather ElementAverage
Visibility9.9 mi
Wind DirectionSE (131.9 °)

Weather ElementTotal
Precipitation---
Heating Degree Days31.5 (Base 65)
Averaged from 27 records on February 13, 2013
WEATHER CONDITIONS BREAKOUT
WIND DIRECTION BREAKOUT
WEATHER BY HOUR - FEBRUARY 13, 2013
[ °C ]   °F
Local TimeTemperatureDewpointHumidityBarometerVisibilityWind DirectionWind SpeedGust SpeedPrecipitationEventsConditions
1:24 AM24.8 °F23.0 °F93 %29.96 in10.0 miCalmMostly Cloudy
1:40 AM24.8 °F23.0 °F93 %29.95 in10.0 miCalmMostly Cloudy
1:55 AM23.7 °F21.4 °F91 %29.95 in10.0 miCalmScattered Clouds
2:55 AM25.3 °F23.4 °F92 %29.94 in10.0 miCalmOvercast
3:55 AM25.2 °F23.5 °F94 %29.91 in10.0 miCalmOvercast
4:55 AM25.5 °F23.7 °F93 %29.90 in10.0 miCalmOvercast
5:55 AM24.8 °F23.4 °F94 %29.88 in10.0 miCalmMostly Cloudy
6:55 AM24.3 °F23.4 °F96 %29.87 in10.0 miCalmOvercast
7:16 AM23.0 °F23.0 °F100 %29.86 in8.0 miCalmOvercast
7:55 AM24.3 °F22.8 °F94 %29.85 in9.0 miNNE (20°)3.5 mphOvercast
8:55 AM25.0 °F23.9 °F96 %29.88 in10.0 miSSE (160°)3.5 mphScattered Clouds
9:55 AM27.5 °F25.2 °F91 %29.87 in10.0 miSSW (200°)3.5 mphClear
10:30 AM28.4 °F26.6 °F93 %29.83 in10.0 miSouth (190°)5.8 mphClear
10:55 AM30.0 °F26.6 °F87 %29.87 in10.0 miSouth (180°)5.8 mphClear
11:55 AM33.4 °F27.1 °F78 %29.85 in10.0 miVariable6.9 mphClear
12:55 PM38.3 °F26.6 °F63 %29.83 in10.0 miSW (230°)6.9 mphClear
1:55 PM41.0 °F26.2 °F56 %29.80 in10.0 miWSW (240°)6.9 mphClear
2:55 PM43.0 °F28.6 °F57 %29.78 in10.0 miWest (260°)9.2 mphClear
3:55 PM43.9 °F30.0 °F58 %29.77 in10.0 miWSW (250°)9.2 mphClear
4:55 PM44.1 °F30.2 °F58 %29.77 in10.0 miWest (260°)9.2 mphClear
5:55 PM41.4 °F30.9 °F66 %29.78 in10.0 miWSW (250°)8.1 mphClear
6:55 PM35.4 °F29.7 °F80 %29.80 in10.0 miWest (260°)6.9 mphClear
7:55 PM34.2 °F29.1 °F82 %29.81 in10.0 miSSW (200°)6.9 mphClear
8:55 PM32.4 °F29.1 °F88 %29.81 in10.0 miSW (220°)8.1 mphPartly Cloudy
9:55 PM33.4 °F30.0 °F87 %29.82 in10.0 miSSW (210°)10.4 mphPartly Cloudy
10:55 PM33.8 °F29.8 °F85 %29.82 in10.0 miSW (220°)9.2 mphMostly Cloudy
11:55 PM32.7 °F29.5 °F88 %29.82 in10.0 miSSW (210°)9.2 mphScattered Clouds
Hourly data recorded from KGUS, located miles away from Bunker Hill, Indiana







STORIES FROM OUR PARTNERS